GFSGBSN_con_lsi_231.txt.gz
Lid_Strength_Index
1 1 1 1 2 2 2 3 2 3 3 3 3 3 3 3 3 3 3 3 3 2 2 2 2 1 2 5 6 4 -3 -2 2 3 4 4 5 6 7 7 6 6 6 5 5 5 6
1 1 1 1 2 2 2 2 2 3 3 3 3 3 3 4 4 3 4 4 3 3 2 2 1 0 3 6 4 4 5 4 3 3 3 4 5 5 6 6 7 6 6 6 5 5 5
1 1 1 1 2 2 2 2 2 3 3 3 3 3 4 4 4 4 4 4 3 3 2 2 0 1 5 4 3 5 5 4 3 3 4 4 4 6 5 7 6 6 7 6 5 5 6
2 2 1 1 2 2 2 3 2 3 3 3 3 4 4 4 4 4 4 4 3 2 2 1 -0 2 6 3 3 3 4 4 4 3 3 3 4 5 6 6 6 7 7 9 6 6 5
2 2 2 2 2 2 2 2 3 3 3 3 3 4 4 4 4 4 4 4 3 2 1 0 2 5 6 1 3 2 3 4 4 4 4 4 5 7 6 7 8 8 10 9 7 5 6
2 2 2 2 2 2 2 2 3 3 2 3 3 4 4 4 4 4 4 4 3 2 1 1 1 5 4 5 3 3 2 3 4 5 5 5 6 6 7 7 11 10 10 9 9 7 6
2 3 2 2 2 2 2 2 2 3 3 3 3 4 4 4 5 5 4 3 6 7 4 8 7 6 4 3 4 3 3 4 4 5 7 7 7 8 8 7 7 8 8 9 7 6 6
3 3 3 2 2 2 2 2 2 2 3 3 3 4 4 4 5 4 5 5 5 5 6 5 6 6 5 4 6 4 3 5 6 8 8 8 8 8 7 7 8 8 9 8 7 6 7
2 2 3 3 2 2 2 2 3 3 3 3 3 4 4 5 4 5 6 6 4 4 6 5 5 5 4 5 6 5 3 5 7 8 8 9 8 8 8 8 8 8 8 8 8 7 7
2 3 3 3 3 3 3 3 3 3 3 3 3 4 5 5 6 6 6 5 4 4 7 7 5 5 5 5 6 4 4 4 6 7 7 8 8 8 8 8 7 8 8 8 9 8 10
2 2 3 3 3 3 3 3 3 3 3 3 4 4 5 5 6 4 4 4 5 5 12 6 6 4 6 6 6 6 4 4 6 6 7 8 8 8 8 7 7 8 7 8 8 9 9
2 2 2 2 3 3 3 3 3 3 3 3 4 5 5 5 5 3 4 4 4 9 14 8 6 6 7 7 6 6 5 4 4 6 6 6 7 7 7 7 7 7 8 8 8 9 11
1 2 2 3 3 3 3 3 3 3 3 4 5 6 5 4 5 4 4 4 9 11 7 8 8 8 7 8 7 7 7 7 7 9 9 8 8 7 7 8 7 7 8 11 12 11 12
1 2 3 3 3 3 3 3 3 3 4 4 6 6 5 4 4 4 4 6 12 9 9 7 8 9 9 8 8 8 8 8 8 8 9 10 10 8 7 7 8 8 8 10 15 13 12
1 1 2 3 3 3 3 3 3 4 4 5 6 5 4 3 4 5 4 10 10 9 7 8 8 9 9 8 8 8 8 8 7 7 9 10 10 7 7 7 7 9 9 9 10 11 12
1 1 2 3 3 4 3 4 3 4 4 6 5 3 2 3 4 4 6 11 8 7 6 7 9 8 9 8 8 8 9 8 8 8 6 8 10 8 7 7 7 7 8 10 9 14 15
1 2 2 2 3 4 4 3 4 4 5 7 5 5 2 4 4 4 9 8 7 6 5 7 8 8 8 8 8 9 9 7 6 8 8 8 8 8 7 8 9 8 9 10 9 10 13
1 2 2 2 3 3 3 3 4 4 5 7 5 7 2 4 6 7 8 7 9 7 6 7 7 7 8 8 9 9 9 7 6 7 9 7 8 9 9 8 8 8 9 9 10 12 11
1 1 2 2 3 3 3 4 4 5 5 7 6 5 2 3 8 8 7 8 7 7 7 7 8 7 7 8 9 8 8 7 7 6 7 7 9 11 10 9 8 9 9 10 10 9 11
1 1 2 2 2 3 3 4 4 5 5 6 5 8 5 4 6 6 8 8 8 7 7 7 7 7 7 8 7 8 8 7 7 7 5 5 9 10 11 10 9 10 10 10 9 10 10
1 2 2 2 2 3 3 4 4 5 5 5 7 8 7 8 7 6 6 7 8 8 7 7 7 7 7 9 8 9 8 7 7 6 8 7 10 9 10 10 10 10 9 9 9 9 10
2 2 2 2 2 3 3 4 4 5 5 4 6 7 7 7 7 7 9 8 8 8 8 7 7 8 8 8 8 9 8 7 8 6 8 9 10 9 10 10 9 9 8 8 8 8 8
2 2 2 2 2 3 3 4 4 5 5 4 5 6 7 10 8 8 8 8 8 7 6 6 7 7 7 7 7 7 7 7 7 7 8 8 9 10 11 10 9 11 9 8 8 9 9
2 2 2 2 2 3 3 3 3 4 5 5 4 6 7 9 8 8 8 8 8 8 7 7 7 7 7 7 7 7 7 8 8 9 8 9 9 9 11 10 13 9 7 8 9 9 8
2 2 2 2 2 3 3 3 3 4 4 4 4 4 7 9 8 8 8 8 8 7 8 8 7 7 7 7 8 10 8 8 8 8 9 8 8 10 11 11 10 10 8 9 10 10 7
2 2 2 2 2 3 3 4 3 4 4 4 4 4 5 7 8 8 8 8 8 8 8 7 6 6 7 8 8 11 11 10 11 9 8 8 8 9 11 13 14 10 7 6 6 11 7
2 2 2 2 3 4 4 3 3 3 4 5 4 4 4 6 6 7 7 7 7 8 8 8 7 5 5 7 9 10 10 9 11 11 11 10 10 10 11 12 11 8 6 5 12 11 6
2 2 3 3 3 4 4 4 4 4 3 4 4 4 4 5 4 4 5 5 6 6 7 7 6 6 6 9 9 10 10 9 10 9 10 10 11 11 11 13 14 6 7 10 7 6 5
3 2 3 3 4 3 4 4 4 4 4 4 4 4 4 5 5 4 3 3 4 5 6 6 6 7 6 8 8 8 9 8 10 11 8 11 9 10 10 10 7 5 6 5 5 5 5

GFSGBSN_con_lsi_234.txt.gz
Lid_Strength_Index
1 1 1 1 1 2 2 2 2 2 2 3 3 3 3 3 3 3 3 3 3 3 2 2 1 1 1 3 3 3 -3 -2 1 2 3 3 4 4 5 5 4 5 5 4 4 4 5
1 1 1 1 1 2 2 2 3 3 3 3 3 3 3 3 3 3 3 3 3 3 2 2 1 1 2 5 1 2 3 3 3 3 2 2 3 4 4 5 5 4 4 4 4 4 4
1 2 1 1 2 2 2 3 3 3 3 3 3 3 3 3 3 4 4 4 4 3 2 2 1 0 3 3 1 2 3 3 3 2 2 2 2 4 4 5 4 4 6 5 5 5 5
1 2 2 2 2 2 2 3 3 3 3 3 3 3 4 4 4 4 4 4 3 2 2 1 -0 1 4 1 1 3 3 3 2 2 2 2 2 4 4 4 5 6 6 8 5 5 5
2 2 2 2 2 2 2 3 3 3 3 3 3 3 4 4 4 4 4 4 3 2 1 0 1 3 4 0 1 2 2 3 3 3 2 3 3 5 4 5 6 6 8 8 7 5 5
2 2 3 2 2 2 2 2 3 3 2 3 3 3 4 4 4 4 4 4 2 2 1 1 1 3 2 3 2 2 2 3 4 3 3 3 4 5 5 6 9 8 8 7 7 6 5
2 2 2 2 2 2 2 2 2 2 3 3 3 3 4 4 4 5 4 1 3 4 3 5 5 4 3 3 2 2 1 4 3 3 5 5 6 7 6 6 6 7 7 7 6 5 6
2 2 2 2 2 2 2 2 2 2 3 3 3 3 4 4 4 4 2 3 3 3 6 4 5 5 4 3 4 2 1 3 4 6 5 6 7 5 6 6 6 6 7 7 6 5 6
2 2 2 3 2 2 2 2 2 2 2 3 3 3 4 5 4 4 3 3 1 1 4 4 4 4 3 3 4 4 2 3 4 6 5 7 6 5 6 6 7 6 7 7 7 6 5
2 2 2 2 2 2 2 2 2 2 2 3 3 4 4 5 6 3 4 2 1 1 6 6 5 3 3 3 5 2 1 3 4 6 6 6 5 6 6 6 6 8 6 6 7 7 9
1 2 2 2 2 2 2 2 2 2 3 3 3 4 4 6 2 3 1 0 1 1 11 6 5 2 3 4 4 4 2 3 5 5 5 7 6 6 7 6 6 7 6 6 6 7 8
1 2 2 2 2 3 3 2 3 3 3 3 4 4 5 4 1 0 1 1 2 8 12 7 4 5 5 5 5 3 3 2 3 5 5 5 5 6 5 5 5 5 6 6 6 7 10
1 1 2 2 3 3 3 3 3 3 3 3 4 5 5 2 2 0 1 2 8 10 6 7 6 5 5 6 6 5 5 5 6 8 8 6 6 5 5 6 5 5 7 10 11 11 11
1 1 2 3 3 3 3 3 3 3 3 4 5 5 4 2 0 1 2 5 11 8 8 5 6 6 7 6 6 6 6 7 5 6 7 8 9 6 5 6 7 7 7 9 14 11 10
1 1 2 3 3 3 3 3 3 3 4 4 6 1 1 0 1 1 4 9 8 8 6 6 6 7 7 6 6 6 6 6 6 5 7 8 9 5 5 5 5 7 8 6 9 8 10
1 1 1 2 3 3 3 3 3 3 4 5 1 1 1 0 1 3 5 9 7 5 5 5 8 6 8 7 7 7 7 5 6 5 4 6 9 6 5 5 5 6 5 9 8 13 14
1 1 2 2 3 3 3 3 4 3 4 6 1 3 1 1 1 4 7 7 6 5 5 6 7 7 7 7 6 7 7 6 5 5 5 5 7 7 6 7 7 7 7 7 7 9 12
1 1 2 2 2 3 3 3 4 4 5 7 2 5 0 1 5 4 6 6 8 6 4 5 5 6 6 6 7 7 7 6 5 5 7 5 6 8 8 6 6 6 7 7 10 11 9
1 1 2 2 2 3 3 4 4 5 5 4 3 4 1 1 7 6 5 6 6 6 5 6 6 5 5 7 9 7 7 5 5 5 6 5 7 10 9 7 6 7 7 6 7 7 10
2 1 1 2 2 3 3 4 4 4 5 4 4 6 4 3 3 5 6 6 7 5 5 5 5 5 6 7 6 8 7 6 5 5 4 4 6 8 10 9 7 9 8 7 7 9 9
1 1 1 2 2 2 3 4 4 5 5 4 3 5 4 7 6 5 5 6 7 7 5 5 6 6 6 8 7 7 6 6 5 6 5 5 8 8 7 7 7 7 8 7 8 7 9
2 1 2 2 2 2 3 4 4 4 5 2 4 5 4 4 5 5 7 6 7 6 6 6 6 6 6 7 7 8 6 6 7 5 5 5 8 8 8 7 7 8 7 7 7 7 7
2 2 2 2 2 2 3 3 4 5 4 2 1 2 4 7 5 6 6 6 6 5 5 5 5 5 6 6 5 5 5 5 5 6 7 7 7 9 10 8 8 10 8 7 7 6 7
2 2 2 2 2 2 3 3 3 4 5 1 1 3 5 7 6 6 6 6 6 6 6 5 5 5 5 4 4 4 4 5 5 5 5 7 7 8 10 9 14 8 6 6 7 6 6
2 2 2 2 2 2 3 3 3 3 4 1 1 2 4 6 4 6 6 6 5 5 5 5 5 4 4 5 6 8 7 7 7 6 5 5 6 9 11 10 8 7 7 8 8 8 6
3 2 2 2 2 2 3 3 3 3 4 2 1 1 3 6 5 5 5 5 6 6 6 6 4 4 4 4 6 10 10 9 9 8 5 6 6 8 9 11 12 9 7 5 5 10 6
3 2 2 2 2 2 3 3 3 3 4 3 1 1 2 5 5 5 5 5 4 5 5 5 5 5 5 5 8 9 8 7 10 10 10 9 8 10 9 11 9 7 6 5 11 10 5
2 2 2 2 3 3 3 3 3 3 4 4 1 1 2 3 3 4 5 4 5 4 6 5 5 5 5 7 7 7 8 8 8 8 8 9 10 10 9 11 12 5 6 9 7 5 4
2 3 2 3 3 4 4 4 4 4 4 4 2 1 1 3 3 1 2 3 3 4 3 3 5 6 5 6 6 6 8 7 8 10 6 9 8 9 9 9 6 4 5 4 4 4 4

GFSGBSN_con_lsi_237.txt.gz
Lid_Strength_Index
1 1 1 1 1 1 2 2 2 2 2 2 3 3 3 3 3 3 3 3 3 3 2 2 1 1 1 3 3 -0 -3 -1 1 2 2 2 3 3 5 4 4 5 5 4 3 4 4
1 1 2 1 1 2 2 2 2 2 2 2 2 3 3 3 3 3 3 3 3 3 2 2 1 1 2 5 -0 -0 2 2 1 1 2 2 3 2 4 4 5 4 4 4 4 4 4
1 1 2 2 1 2 2 2 3 3 3 2 2 3 3 3 3 3 3 3 3 3 2 1 1 -0 2 3 -0 -0 2 2 1 1 2 1 1 3 3 4 3 4 5 5 4 4 5
2 2 2 2 2 2 2 2 3 2 3 3 3 3 3 3 3 3 3 3 3 3 2 1 0 0 3 -0 -1 1 2 2 1 1 1 1 1 2 3 3 4 5 5 7 5 4 4
2 2 2 2 2 2 2 2 2 2 3 3 3 3 3 4 4 4 4 4 3 2 1 0 1 2 4 0 1 0 1 2 1 1 1 1 1 3 3 5 6 6 8 7 6 4 5
2 2 2 2 2 2 2 2 2 3 2 2 3 3 3 4 4 4 4 4 2 2 1 -0 1 3 2 3 1 1 1 1 2 2 2 3 3 5 5 6 9 8 8 7 7 5 5
2 1 2 2 2 2 2 2 2 2 2 3 3 3 4 4 4 4 4 2 3 3 2 3 3 3 3 2 1 1 1 2 2 3 5 4 6 7 6 5 6 6 7 7 6 5 6
2 2 2 2 2 2 2 2 2 2 2 3 3 3 4 4 4 4 3 2 2 2 5 3 4 3 2 2 4 2 1 3 4 6 4 5 7 5 5 5 6 6 7 7 6 5 5
1 2 2 2 2 2 2 2 2 2 2 3 3 3 4 5 4 3 2 2 0 0 4 4 3 3 3 3 4 3 2 3 4 5 5 6 6 5 5 6 6 6 7 7 7 6 5
1 2 2 2 2 2 2 2 2 2 2 2 3 3 4 5 5 1 2 -0 -0 -0 6 5 5 3 3 3 4 2 1 3 4 6 5 6 4 6 6 6 6 7 6 6 7 7 9
1 1 2 2 2 3 2 2 2 2 2 2 3 3 4 6 2 2 1 -1 -1 1 11 5 4 1 2 4 3 3 1 3 5 5 5 6 6 6 6 6 5 7 5 6 6 7 7
0 1 2 2 3 2 3 3 2 2 2 3 3 4 4 4 1 -0 -1 -1 1 8 12 6 4 5 5 4 4 3 3 2 3 5 5 5 4 5 5 5 5 5 6 6 6 7 10
0 1 1 2 2 2 3 3 2 3 3 3 4 5 4 0 1 -1 -1 2 8 11 6 7 6 5 5 5 5 5 5 5 6 8 7 6 6 4 4 6 5 5 7 10 11 10 13
0 1 1 2 3 3 3 3 2 3 3 4 5 5 4 1 -1 -1 1 5 11 7 7 5 5 5 6 5 5 5 6 7 5 6 7 8 9 6 5 5 7 6 7 10 14 13 12
0 1 1 2 3 3 3 3 3 3 3 4 5 1 0 1 0 -0 4 9 8 7 5 6 5 7 7 6 6 6 6 6 5 5 7 8 8 5 5 5 5 7 8 6 8 8 10
0 1 1 1 2 3 3 3 3 3 4 5 1 1 1 -1 -1 1 5 9 6 5 5 5 7 6 7 7 7 6 6 5 6 5 4 6 9 6 5 4 5 6 5 8 8 13 14
1 1 1 1 2 3 3 3 3 3 4 5 1 3 1 -1 -0 3 7 6 6 4 4 5 6 7 6 7 6 7 7 5 5 5 4 5 6 7 6 7 7 7 7 7 7 8 12
1 1 1 1 2 3 3 3 4 4 5 5 2 5 0 -0 5 4 6 5 8 5 4 5 5 5 6 6 6 6 7 6 4 4 6 5 6 8 7 5 5 5 7 7 9 10 9
2 1 1 2 2 2 3 4 4 4 5 3 4 3 0 1 7 6 5 5 5 5 5 5 5 5 5 6 7 6 6 4 4 5 6 5 7 9 8 7 5 7 6 6 6 7 9
2 1 1 1 2 2 3 4 4 4 4 5 4 6 3 3 3 5 5 5 6 4 5 4 5 4 5 6 5 7 6 5 4 4 4 4 6 8 10 10 8 8 7 6 7 9 9
2 2 1 1 1 2 3 4 4 4 4 3 3 5 3 6 5 4 4 5 6 6 4 4 5 5 6 7 6 7 6 5 5 6 5 5 8 7 7 7 7 7 7 7 8 7 9
2 2 1 1 1 2 2 3 4 4 5 2 5 5 3 5 4 4 7 5 6 5 5 6 6 5 5 6 6 7 6 6 6 5 5 5 8 7 8 7 7 8 7 7 7 7 7
2 2 1 2 1 2 2 3 4 4 4 2 2 1 4 6 5 5 5 5 5 5 5 4 5 5 6 5 4 4 4 4 4 6 6 6 7 8 10 7 7 9 8 7 7 6 6
3 2 2 2 2 2 2 3 3 4 4 1 1 2 5 7 5 5 5 5 5 5 6 5 4 5 4 3 3 3 4 4 4 4 4 6 7 8 10 8 13 7 5 6 6 6 5
4 3 2 2 2 2 2 2 3 3 4 1 0 2 4 7 5 5 5 5 5 4 5 5 4 3 3 3 6 7 7 6 6 5 5 5 6 9 10 10 8 7 7 7 7 7 5
4 3 2 2 2 2 2 2 3 3 4 2 -0 -0 3 6 5 4 5 5 5 5 5 5 3 2 3 4 6 9 10 8 8 7 5 5 5 8 8 11 12 9 6 5 5 9 5
4 3 2 2 2 2 2 2 3 3 4 3 0 0 2 5 3 4 5 5 4 4 5 5 4 4 3 6 8 8 9 7 9 9 8 8 8 9 9 10 9 6 5 5 10 10 5
4 3 2 2 3 3 2 2 3 3 3 3 0 -0 2 4 3 3 3 4 3 4 6 4 5 5 5 7 7 7 8 7 8 7 8 9 9 9 9 11 12 5 5 9 6 4 4
4 3 3 3 3 3 3 3 3 4 4 4 1 0 0 3 3 1 2 3 3 3 3 3 5 5 4 6 5 6 7 6 7 9 6 8 7 9 8 9 6 4 5 4 3 4 4

GFSGBSN_con_lsi_240.txt.gz
Lid_Strength_Index
1 1 1 2 2 2 2 2 2 2 2 3 3 3 3 3 3 3 3 2 2 2 2 2 1 1 1 3 3 1 -4 -1 2 2 2 2 3 4 6 5 4 5 5 4 4 4 4
1 1 1 2 2 2 2 2 2 2 2 3 2 3 3 3 3 3 3 3 3 3 2 2 1 1 2 5 0 -0 0 1 2 1 2 2 3 3 4 5 5 4 4 4 4 4 4
1 1 1 2 2 2 2 2 2 3 3 2 2 3 3 3 3 3 3 3 3 3 2 2 1 1 2 3 -0 -0 -0 2 1 1 2 2 2 3 3 5 3 4 6 5 5 4 5
2 1 1 1 2 2 2 2 2 3 3 3 2 3 3 4 3 3 3 3 3 2 2 1 0 1 4 0 -1 0 -0 1 0 0 1 1 1 2 3 3 4 5 5 9 5 5 4
1 1 1 1 2 2 2 2 2 3 3 3 3 3 3 4 4 4 3 3 3 2 1 1 1 2 4 -1 2 0 0 2 1 1 1 1 2 3 4 6 7 6 9 8 7 4 5
2 1 1 2 2 1 2 2 2 2 3 3 3 3 3 4 4 4 4 4 2 2 1 0 1 4 2 3 1 1 0 1 2 2 3 3 4 5 5 6 10 9 8 7 8 6 5
1 2 1 2 2 1 2 2 2 2 3 3 3 3 4 4 4 4 4 3 4 4 2 4 3 3 3 1 1 2 1 2 2 3 6 4 6 8 7 6 6 7 7 7 6 5 6
1 2 2 1 2 2 2 2 2 2 3 3 3 3 4 4 4 4 3 3 2 2 6 3 3 3 2 2 4 2 1 4 4 6 5 6 7 6 5 6 6 6 7 8 6 5 6
0 1 2 2 2 2 2 2 2 2 3 2 3 3 4 4 4 4 3 2 0 1 4 4 3 4 3 3 4 4 2 3 5 6 6 7 6 5 6 6 7 7 7 8 7 6 6
0 1 2 2 2 2 2 2 2 2 2 2 3 3 4 4 6 3 3 1 0 0 7 6 5 4 3 3 5 2 2 3 4 6 6 6 5 6 6 7 6 8 6 6 7 8 10
0 1 1 2 2 2 2 2 2 2 2 2 3 3 4 5 3 2 1 -0 -0 1 13 6 5 2 2 4 4 4 2 3 5 6 5 7 6 6 7 6 5 7 5 6 7 8 8
0 1 1 2 2 2 3 3 2 2 2 3 3 4 4 4 3 1 -0 -0 1 8 12 7 4 5 5 4 4 3 3 3 3 5 5 6 4 5 5 5 5 5 6 7 7 8 11
0 1 1 1 2 3 2 3 2 3 3 3 4 4 5 1 2 -1 -0 2 8 11 6 7 6 5 5 6 5 5 5 6 7 8 8 6 6 5 5 6 5 6 8 10 12 12 13
0 1 1 1 2 2 3 3 3 3 3 3 5 5 4 1 -0 -0 1 5 11 8 7 5 6 6 7 6 6 6 6 7 5 6 7 9 9 7 5 6 7 7 7 10 16 16 13
1 0 1 2 2 3 3 3 3 3 3 4 5 1 1 1 1 -0 4 9 10 7 5 6 6 7 7 6 6 6 6 7 6 5 8 8 8 5 5 5 5 7 8 7 9 10 12
1 1 1 1 2 2 3 3 3 3 4 5 1 1 2 -0 -0 1 6 10 8 5 5 5 7 6 8 7 7 7 7 5 6 5 5 7 9 6 5 5 5 6 6 9 9 14 15
2 1 1 1 2 2 3 3 3 4 4 5 2 4 1 -1 0 4 8 7 6 4 4 6 6 7 7 7 7 7 7 6 5 5 5 6 7 7 6 7 7 7 8 7 8 9 14
2 1 1 1 2 2 3 3 3 4 5 5 2 6 1 -0 5 5 7 5 8 5 4 5 5 6 6 6 7 7 7 6 5 5 6 5 7 9 8 6 5 6 7 7 10 11 9
2 2 1 1 2 2 3 3 4 4 5 2 4 4 1 1 7 6 5 5 5 5 5 5 6 5 5 6 7 6 6 4 4 5 6 5 7 10 9 7 7 8 6 6 7 7 10
2 2 2 1 2 1 2 3 4 4 4 6 4 6 3 3 3 5 6 6 6 4 5 4 5 5 5 6 5 6 6 5 4 4 4 3 7 8 10 9 9 10 8 7 7 9 9
2 2 2 1 1 2 2 3 4 4 4 5 3 6 4 6 5 5 5 5 6 6 4 4 5 5 6 7 7 7 6 5 5 6 4 5 8 7 7 7 9 8 9 8 9 8 9
3 2 2 1 1 2 2 3 4 4 4 2 5 6 4 4 4 5 6 6 6 5 5 6 6 5 5 7 6 7 6 6 6 5 5 5 8 7 8 7 7 8 7 7 7 7 7
3 3 3 2 1 1 2 2 3 4 4 2 2 2 4 6 5 5 5 5 5 5 4 4 5 5 6 5 4 4 4 4 5 6 6 6 7 9 11 8 8 10 8 7 7 6 7
4 4 3 2 2 1 2 2 3 4 4 2 2 3 5 7 6 6 5 5 5 5 6 4 4 5 4 3 3 4 4 4 4 5 4 6 7 8 10 9 13 8 5 6 7 7 6
5 4 3 2 2 2 2 2 2 3 4 3 1 2 5 7 6 5 5 5 4 4 5 5 4 3 2 4 6 7 7 6 6 5 5 5 7 9 11 11 9 7 7 7 8 8 6
5 4 4 2 2 2 2 2 2 3 4 3 1 0 3 6 6 4 5 4 5 6 5 5 3 2 3 5 6 9 10 8 9 7 5 6 6 8 9 12 13 9 6 5 5 10 6
5 4 4 2 2 2 3 2 2 3 4 4 1 -1 2 6 4 4 5 6 4 5 5 5 4 4 3 6 8 9 9 7 10 9 8 8 8 10 9 10 9 7 5 5 11 11 5
5 4 4 2 2 3 3 3 2 3 3 4 1 -1 2 4 3 3 3 4 4 4 7 5 5 5 5 7 8 8 8 7 8 7 8 9 10 10 9 10 13 5 6 9 7 5 5
4 4 3 3 3 3 3 3 3 3 4 4 2 -1 -0 3 3 1 1 2 2 3 4 4 5 5 5 6 6 6 8 7 7 10 6 9 8 10 9 9 5 5 5 4 3 4 4

GFSGBSN_con_lsi_246.txt.gz
Lid_Strength_Index
2 2 2 2 2 2 2 3 3 3 3 3 3 3 3 4 4 3 3 3 3 3 2 2 2 1 4 6 6 3 -4 -2 2 4 5 5 6 7 8 7 7 7 6 5 4 5 5
1 2 2 2 2 2 2 2 3 3 3 3 3 3 4 4 4 4 3 3 3 3 2 2 2 1 4 7 3 2 2 2 4 5 4 4 5 5 7 7 8 6 5 5 5 5 5
1 1 2 2 2 2 2 2 2 3 3 3 3 3 3 4 4 4 3 3 3 3 3 2 1 1 5 6 2 3 3 4 4 4 4 3 5 7 7 7 5 6 8 7 6 5 6
1 1 1 2 1 2 2 2 2 2 3 3 3 3 3 4 4 4 3 3 3 3 2 2 1 3 8 2 2 3 5 5 5 4 4 4 5 6 7 6 6 8 8 10 7 6 5
0 1 1 1 2 1 2 2 2 2 3 3 3 3 3 4 4 4 4 4 3 2 1 1 5 6 8 1 4 3 4 6 6 4 3 2 5 8 7 9 11 9 12 10 8 5 6
0 1 1 2 2 2 2 2 2 2 3 3 3 3 3 4 4 4 4 4 4 3 2 2 2 8 6 6 5 4 3 6 6 5 5 6 8 9 10 11 13 11 11 9 10 7 7
0 0 0 1 1 1 2 2 2 2 2 3 3 3 4 4 4 5 6 7 9 9 8 9 8 6 5 5 4 4 4 6 7 7 9 7 10 12 10 10 9 9 11 10 9 7 8
0 -0 0 1 1 1 2 2 2 2 2 3 3 4 4 4 4 4 7 7 8 7 9 6 6 5 4 6 7 5 6 7 8 9 9 10 12 9 8 8 10 10 10 10 9 7 9
-0 0 1 1 2 2 2 3 2 2 2 3 3 4 4 4 4 7 8 7 5 5 10 6 7 7 7 7 7 7 6 7 8 9 9 11 9 7 8 10 10 12 10 10 10 9 9
0 1 1 1 1 2 2 2 2 2 2 3 3 3 4 5 7 7 7 7 6 6 11 8 8 7 6 7 8 5 5 7 8 9 9 10 7 8 9 11 10 12 9 8 9 11 13
0 1 1 1 1 2 2 2 3 2 2 3 3 3 4 5 7 6 5 6 6 7 17 7 8 5 6 8 8 7 4 7 9 9 9 10 9 9 9 9 9 10 7 8 8 11 13
1 1 1 1 1 2 2 2 3 3 3 3 3 4 5 6 7 6 5 6 6 11 15 10 7 8 9 9 8 7 6 8 8 9 10 9 7 8 9 8 8 7 9 11 12 13 16
1 1 1 1 1 2 2 2 3 3 3 3 4 4 5 5 7 5 5 7 11 15 8 10 9 10 10 10 9 8 9 11 11 14 14 10 9 9 8 11 9 10 14 16 16 15 16
1 1 1 1 1 2 2 2 3 3 3 3 4 5 6 5 6 6 6 9 15 10 9 10 9 10 10 10 10 9 10 11 10 11 13 13 13 10 9 10 11 11 13 16 17 17 16
2 1 1 1 1 2 2 3 3 3 3 4 5 7 7 5 5 6 7 13 13 11 8 9 10 11 12 9 9 10 10 11 10 10 12 14 13 9 8 9 9 12 13 12 14 13 16
1 2 1 1 1 2 2 3 3 3 3 4 7 6 5 3 4 7 10 13 11 8 7 9 11 10 12 11 10 11 11 9 9 8 10 12 14 11 9 9 10 10 10 14 14 17 20
2 2 2 1 1 2 2 2 3 3 4 5 5 6 4 4 6 9 12 11 9 7 6 8 11 11 11 11 10 12 11 9 7 8 10 12 14 12 10 11 12 11 12 12 13 14 19
2 2 2 2 2 2 2 2 3 4 4 5 8 9 5 4 11 12 12 9 9 8 7 9 6 10 10 10 12 12 11 10 8 8 10 9 13 14 13 9 7 10 11 12 14 15 15
3 3 3 2 2 2 2 3 3 4 4 8 10 7 5 6 13 13 11 9 8 8 8 9 9 7 8 11 12 10 8 7 6 7 9 9 13 15 13 11 10 10 10 11 12 14 15
3 3 3 3 2 2 2 3 4 4 4 7 8 10 7 8 10 11 12 10 9 6 7 8 8 7 8 10 10 10 9 7 6 6 4 7 13 13 15 12 11 12 10 10 12 14 14
4 4 4 3 2 2 2 3 4 4 4 8 9 9 7 10 11 10 11 10 9 9 8 8 9 8 8 11 9 10 9 8 7 5 8 10 12 10 12 10 10 11 10 10 12 13 14
4 4 4 4 3 2 1 3 4 4 4 8 9 8 8 8 8 10 11 11 9 8 9 9 9 8 8 11 9 10 9 10 10 9 10 10 12 11 12 10 10 11 10 10 10 10 10
5 5 4 4 3 2 1 3 3 4 4 9 6 5 7 9 8 11 11 10 8 8 7 7 7 8 8 8 7 6 7 7 8 9 10 11 12 13 14 11 11 13 10 10 10 9 9
5 5 5 4 3 2 2 2 3 4 4 7 8 7 8 10 9 9 7 7 7 8 7 6 6 8 7 7 7 8 8 8 9 10 10 11 12 13 14 14 16 12 8 8 9 9 8
5 5 5 4 3 2 2 2 3 3 4 6 6 7 8 11 8 8 7 7 7 8 7 7 7 7 7 7 10 12 12 10 9 10 10 10 12 13 15 15 13 10 9 9 11 11 8
6 5 5 4 3 2 2 2 3 3 4 6 7 6 7 9 9 6 8 7 9 9 9 7 6 6 7 9 11 13 14 13 12 10 10 10 11 12 14 15 17 12 8 7 7 14 7
6 5 4 5 4 2 2 2 2 3 4 6 7 5 6 9 7 6 8 8 7 9 9 8 7 8 8 11 12 13 13 10 12 13 12 12 12 13 14 14 13 9 7 6 14 13 7
5 5 4 4 3 3 3 3 3 3 3 5 7 5 5 7 7 5 4 7 8 9 10 8 8 7 8 11 12 12 12 11 11 11 12 12 13 14 14 16 17 7 8 11 9 9 8
5 5 4 4 4 4 4 3 3 3 3 4 7 4 3 5 5 5 5 4 5 6 9 9 8 8 8 9 10 10 11 11 12 13 10 12 11 12 12 13 8 7 7 7 7 8 8

GFSGBSN_con_lsi_252.txt.gz
Lid_Strength_Index
2 2 2 2 2 3 3 3 3 3 3 3 3 3 3 3 3 4 4 3 4 3 3 2 2 1 4 9 7 4 -1 0 2 5 6 6 6 8 9 8 8 9 7 6 5 6 6
1 2 2 2 3 3 3 3 3 3 3 3 3 3 3 3 3 4 4 4 4 3 3 2 2 1 5 10 5 4 5 6 6 6 6 5 6 6 8 9 9 7 6 6 6 6 6
1 1 2 2 2 2 3 3 3 3 3 3 3 3 3 3 3 4 4 5 4 3 3 2 2 2 6 8 5 5 5 7 7 6 8 5 5 7 8 9 6 7 8 7 7 7 7
1 1 2 2 2 2 3 3 3 3 3 3 3 3 3 3 3 4 4 5 4 3 3 2 1 5 11 5 5 4 5 7 6 6 6 5 5 7 8 7 7 9 8 10 7 7 6
1 1 1 2 2 2 3 3 3 3 3 3 3 3 4 4 4 4 5 4 4 3 2 1 7 9 11 2 6 5 4 7 6 7 6 4 6 9 8 10 11 10 13 11 9 7 8
2 2 1 1 1 2 3 3 3 3 3 3 3 3 4 4 4 4 5 4 4 4 3 2 3 8 8 8 6 5 5 6 7 7 7 7 9 10 11 11 14 12 13 11 10 8 8
2 2 2 1 1 1 1 2 2 2 3 2 3 3 4 4 4 5 7 9 12 13 8 12 12 8 6 5 5 6 5 7 8 8 10 10 11 12 11 11 10 10 12 11 10 7 9
2 2 2 1 1 1 1 2 2 2 3 3 3 3 3 4 4 5 7 11 12 9 11 8 8 8 7 7 8 7 6 9 9 11 10 10 12 10 9 9 10 11 12 12 10 9 10
2 2 2 1 1 1 1 2 2 2 3 3 3 3 3 4 5 8 10 9 7 8 12 9 8 8 8 7 8 8 6 8 10 11 10 11 10 8 9 10 10 13 12 12 11 11 10
1 2 1 1 1 1 1 2 2 2 2 2 3 3 3 4 8 8 8 7 8 8 13 11 10 8 8 8 9 6 6 7 10 10 10 10 8 9 11 11 11 13 10 10 10 13 14
1 1 2 1 1 1 1 2 2 2 2 2 2 3 4 5 9 8 7 7 9 8 18 10 10 8 9 9 9 9 6 8 10 9 9 11 11 11 12 11 11 12 9 10 10 13 14
1 1 1 1 1 1 2 2 2 2 3 2 3 3 4 6 7 7 6 6 8 12 16 10 9 10 10 11 10 9 10 8 8 10 11 10 10 10 10 10 10 10 11 12 12 14 16
1 1 2 1 1 2 2 2 2 3 3 3 3 4 4 5 9 6 7 8 12 15 9 11 12 11 12 12 11 10 11 12 11 14 15 12 11 11 10 12 11 12 14 16 16 16 16
1 2 1 2 2 2 2 2 2 3 3 4 5 5 5 5 7 6 7 9 15 12 11 9 11 12 12 11 12 11 12 13 13 13 15 15 14 12 10 11 11 13 13 15 18 18 16
2 2 2 2 2 2 2 2 3 3 4 4 5 6 8 7 5 7 9 13 14 12 10 10 12 13 14 11 11 12 12 13 12 12 14 15 14 10 10 10 10 13 14 13 15 15 16
2 2 2 2 2 2 2 2 3 4 4 4 8 7 6 5 5 7 10 12 12 9 7 9 13 12 14 13 12 12 12 12 12 11 12 13 14 13 10 10 10 11 11 14 15 18 20
3 3 2 2 3 3 2 2 3 4 4 4 7 7 5 6 8 9 11 12 10 7 8 10 10 12 13 12 12 12 12 12 10 11 11 13 14 12 11 12 14 12 12 14 14 15 18
3 3 3 2 3 3 2 3 3 4 4 5 10 9 5 9 10 12 13 10 10 9 9 8 9 10 11 11 12 13 12 12 10 10 11 12 14 15 14 11 10 11 12 13 15 15 16
3 3 3 3 3 3 3 3 4 4 4 5 11 9 6 9 11 14 12 10 9 10 10 10 10 9 11 12 13 12 11 9 9 10 11 11 14 15 14 12 11 11 11 13 14 14 15
3 4 4 4 3 4 3 2 4 4 4 6 9 9 9 9 12 14 13 11 11 8 9 8 9 9 10 12 13 12 10 7 8 9 6 7 14 14 14 14 12 13 11 12 13 14 15
4 4 4 4 4 4 3 2 3 4 4 7 10 10 8 12 13 12 11 11 11 11 10 9 11 9 10 12 12 12 9 9 8 7 9 10 13 12 13 10 11 11 11 11 13 13 14
4 4 5 4 4 4 3 2 3 4 5 8 8 9 8 10 8 10 11 12 11 10 10 11 11 8 9 11 10 10 9 10 10 9 11 11 13 12 13 11 10 12 11 10 11 11 12
5 5 5 5 5 4 3 2 3 4 5 9 9 8 8 10 9 12 11 10 9 7 7 8 9 9 9 9 8 8 9 9 9 9 11 12 13 14 14 13 12 13 12 11 11 10 11
6 6 5 5 5 4 3 2 3 3 4 6 9 9 9 11 10 9 8 7 8 8 8 8 8 9 8 8 8 9 9 10 10 11 11 12 13 14 15 15 17 12 9 8 10 10 9
6 6 5 5 4 4 3 2 3 3 4 6 8 9 9 11 9 8 8 8 7 8 9 8 8 9 8 9 11 12 12 11 11 11 12 12 13 15 15 16 14 11 9 10 11 11 9
6 6 5 4 4 4 3 3 3 3 3 7 7 7 9 10 11 7 8 7 9 10 9 8 7 8 9 11 12 15 14 13 13 12 12 11 12 13 16 16 18 12 8 7 9 14 8
6 6 5 4 4 3 3 3 3 3 3 6 8 7 8 10 9 7 9 9 8 9 11 10 9 8 9 12 13 14 13 12 13 13 12 13 13 15 15 15 13 9 8 7 14 12 8
5 5 5 4 4 4 4 3 3 3 3 6 8 6 7 10 8 6 5 8 9 10 11 10 10 9 11 12 13 13 13 13 13 13 13 13 13 14 14 16 16 8 8 11 9 9 8
4 4 5 5 5 5 4 4 3 3 3 5 9 7 6 9 8 6 5 4 6 6 9 10 9 9 9 11 12 12 12 13 14 14 11 13 11 12 12 12 9 9 9 8 8 8 6